Time,TemperatureF,DewpointF,PressureIn,WindDirection,WindDirectionDegrees,WindSpeedMPH,WindSpeedGustMPH,Humidity,HourlyPrecipIn,Conditions,Clouds,dailyrainin,SolarRadiationWatts/m^2,SoftwareType,DateUTC
2013-07-01 00:01:00,61.0,59.0,29.99,South,185,0.0,0.0,94,0.00,,,0.00,0.000000,,2013-07-01 07:01:00,
2013-07-01 00:11:00,61.0,59.0,29.99,SSW,207,0.0,0.0,94,0.00,,,0.00,0.000000,,2013-07-01 07:11:00,
2013-07-01 00:22:00,61.0,59.0,29.99,SSW,207,0.0,0.0,94,0.00,,,0.00,0.000000,,2013-07-01 07:22:00,
2013-07-01 00:33:00,61.0,59.0,29.99,SSW,207,0.0,0.0,94,0.00,,,0.00,0.000000,,2013-07-01 07:33:00,
2013-07-01 00:43:00,61.0,59.0,29.99,SSE,158,0.0,1.0,94,0.00,,,0.00,0.000000,,2013-07-01 07:43:00,
2013-07-01 00:53:00,61.0,59.0,29.99,SSW,192,0.0,2.0,94,0.00,,,0.00,0.000000,,2013-07-01 07:53:00,
2013-07-01 01:01:00,61.0,59.0,29.99,SSW,192,0.0,2.0,94,0.00,,,0.00,0.000000,,2013-07-01 08:01:00,
2013-07-01 01:11:00,61.0,59.0,29.99,SW,234,0.0,2.0,94,0.00,,,0.00,0.000000,,2013-07-01 08:11:00,
2013-07-01 01:22:00,61.0,59.0,29.99,SW,234,0.0,1.0,94,0.00,,,0.00,0.000000,,2013-07-01 08:22:00,
2013-07-01 01:32:00,61.0,59.0,29.99,SW,234,0.0,1.0,94,0.00,,,0.00,0.000000,,2013-07-01 08:32:00,
2013-07-01 01:42:00,61.0,59.0,29.98,South,184,0.0,2.0,94,0.00,,,0.00,0.000000,,2013-07-01 08:42:00,
2013-07-01 01:52:00,61.0,59.0,29.98,NNE,19,0.0,2.0,94,0.00,,,0.00,0.000000,,2013-07-01 08:52:00,
2013-07-01 02:01:00,61.0,59.0,29.98,NNE,19,0.0,2.0,94,0.00,,,0.00,0.000000,,2013-07-01 09:01:00,
2013-07-01 02:11:00,61.0,59.0,29.98,WSW,244,0.0,0.0,94,0.00,,,0.00,0.000000,,2013-07-01 09:11:00,
2013-07-01 02:22:00,61.0,59.0,29.98,SE,138,1.0,5.0,94,0.00,,,0.00,0.000000,,2013-07-01 09:22:00,
2013-07-01 02:33:00,61.0,59.0,29.98,SE,138,1.0,5.0,94,0.00,,,0.00,0.000000,,2013-07-01 09:33:00,
2013-07-01 02:43:00,61.0,59.0,29.99,West,259,0.0,3.0,94,0.00,,,0.00,0.000000,,2013-07-01 09:43:00,
2013-07-01 02:53:00,60.0,58.0,29.99,SSE,153,0.0,2.0,94,0.00,,,0.00,0.000000,,2013-07-01 09:53:00,
2013-07-01 03:03:00,60.0,58.0,29.99,SSE,153,0.0,2.0,94,0.00,,,0.00,0.000000,,2013-07-01 10:03:00,
2013-07-01 03:11:00,60.0,58.0,29.99,SSE,165,0.0,0.0,94,0.00,,,0.00,0.000000,,2013-07-01 10:11:00,
2013-07-01 03:22:00,60.0,58.0,29.99,SSW,196,0.0,0.0,94,0.00,,,0.00,0.000000,,2013-07-01 10:22:00,
2013-07-01 03:33:00,60.0,58.0,29.99,SSW,196,0.0,0.0,94,0.00,,,0.00,0.000000,,2013-07-01 10:33:00,
2013-07-01 03:42:00,60.0,58.0,30.00,SSW,209,0.0,2.0,94,0.00,,,0.00,0.000000,,2013-07-01 10:42:00,
2013-07-01 03:52:00,60.0,58.0,30.00,WSW,256,0.0,4.0,94,0.00,,,0.00,0.000000,,2013-07-01 10:52:00,
2013-07-01 04:02:00,60.0,58.0,30.00,WSW,256,0.0,4.0,94,0.00,,,0.00,0.000000,,2013-07-01 11:02:00,
2013-07-01 04:11:00,60.0,58.0,30.00,SE,131,0.0,3.0,94,0.00,,,0.00,0.000000,,2013-07-01 11:11:00,
2013-07-01 04:22:00,60.0,58.0,30.00,SE,132,0.0,0.0,94,0.00,,,0.00,0.000000,,2013-07-01 11:22:00,
2013-07-01 04:33:00,60.0,58.0,30.00,SE,132,0.0,0.0,94,0.00,,,0.00,0.000000,,2013-07-01 11:33:00,
2013-07-01 04:43:00,59.0,58.0,30.00,West,263,0.0,0.0,95,0.00,,,0.00,0.000000,,2013-07-01 11:43:00,
2013-07-01 04:52:00,59.0,58.0,30.00,SSE,165,0.0,0.0,95,0.00,,,0.00,0.000000,,2013-07-01 11:52:00,
2013-07-01 05:01:00,59.0,58.0,30.00,SSE,165,0.0,0.0,95,0.00,,,0.00,0.000000,,2013-07-01 12:01:00,
2013-07-01 05:11:00,59.0,58.0,30.01,SW,225,0.0,2.0,95,0.00,,,0.00,0.000000,,2013-07-01 12:11:00,
2013-07-01 05:21:00,60.0,59.0,30.01,SW,234,0.0,0.0,95,0.00,,,0.00,0.000000,,2013-07-01 12:21:00,
2013-07-01 05:33:00,60.0,59.0,30.01,SW,234,0.0,0.0,95,0.00,,,0.00,0.000000,,2013-07-01 12:33:00,
2013-07-01 05:43:00,60.0,59.0,30.01,SW,221,1.0,3.0,95,0.00,,,0.00,0.000000,,2013-07-01 12:43:00,
2013-07-01 05:53:00,60.0,59.0,30.00,SW,221,0.0,1.0,95,0.00,,,0.00,0.000000,,2013-07-01 12:53:00,
2013-07-01 06:01:00,60.0,59.0,30.00,SW,221,0.0,1.0,95,0.00,,,0.00,0.000000,,2013-07-01 13:01:00,
2013-07-01 06:12:00,60.0,59.0,30.01,SW,221,0.0,0.0,95,0.00,,,0.00,0.000000,,2013-07-01 13:12:00,
2013-07-01 06:23:00,60.0,59.0,30.01,SSW,206,0.0,2.0,95,0.00,,,0.00,9.000000,,2013-07-01 13:23:00,
2013-07-01 06:33:00,60.0,59.0,30.01,SSW,206,0.0,2.0,95,0.00,,,0.00,9.000000,,2013-07-01 13:33:00,
2013-07-01 06:43:00,60.0,59.0,30.01,South,178,0.0,1.0,95,0.00,,,0.00,18.000000,,2013-07-01 13:43:00,
2013-07-01 06:53:00,60.0,59.0,30.01,South,178,0.0,1.0,95,0.00,,,0.00,18.000000,,2013-07-01 13:53:00,
2013-07-01 07:01:00,60.0,59.0,30.01,South,178,0.0,0.0,95,0.00,,,0.00,28.000000,,2013-07-01 14:01:00,
2013-07-01 07:11:00,60.0,59.0,30.00,South,188,0.0,0.0,96,0.00,,,0.00,42.000000,,2013-07-01 14:11:00,
2013-07-01 07:34:00,60.0,59.0,30.01,SSW,213,0.0,0.0,96,0.00,,,0.00,47.000000,,2013-07-01 14:34:00,
2013-07-01 07:43:00,60.0,59.0,30.01,WSW,254,0.0,0.0,96,0.00,,,0.00,76.000000,,2013-07-01 14:43:00,
2013-07-01 07:52:00,61.0,60.0,30.01,WSW,238,0.0,0.0,96,0.00,,,0.00,142.000000,,2013-07-01 14:52:00,
2013-07-01 08:01:00,61.0,60.0,30.01,WSW,238,0.0,0.0,96,0.00,,,0.00,142.000000,,2013-07-01 15:01:00,
2013-07-01 08:11:00,61.0,60.0,30.01,West,275,0.0,0.0,96,0.00,,,0.00,181.000000,,2013-07-01 15:11:00,
2013-07-01 08:23:00,60.0,59.0,30.01,WSW,257,0.0,4.0,95,0.00,,,0.00,127.000000,,2013-07-01 15:23:00,
2013-07-01 08:33:00,60.0,59.0,30.01,WSW,257,0.0,4.0,95,0.00,,,0.00,127.000000,,2013-07-01 15:33:00,
2013-07-01 08:43:00,61.0,60.0,30.01,NW,316,0.0,0.0,96,0.00,,,0.00,448.000000,,2013-07-01 15:43:00,
2013-07-01 08:52:00,62.0,61.0,30.00,NW,308,1.0,5.0,95,0.00,,,0.00,362.000000,,2013-07-01 15:52:00,
2013-07-01 09:01:00,62.0,61.0,30.00,NW,308,1.0,5.0,95,0.00,,,0.00,362.000000,,2013-07-01 16:01:00,
2013-07-01 09:11:00,63.0,62.0,29.99,WNW,303,1.0,5.0,95,0.00,,,0.00,450.000000,,2013-07-01 16:11:00,
2013-07-01 09:22:00,63.0,61.0,30.00,WNW,301,3.0,8.0,93,0.00,,,0.00,510.000000,,2013-07-01 16:22:00,
2013-07-01 09:33:00,63.0,61.0,30.00,WNW,301,3.0,8.0,93,0.00,,,0.00,510.000000,,2013-07-01 16:33:00,
2013-07-01 09:44:00,63.0,61.0,30.00,WNW,294,3.0,8.0,93,0.00,,,0.00,123.000000,,2013-07-01 16:44:00,
2013-07-01 09:53:00,63.0,61.0,30.01,NW,325,2.0,8.0,92,0.00,,,0.00,371.000000,,2013-07-01 16:53:00,
2013-07-01 10:02:00,63.0,61.0,30.01,NW,325,2.0,8.0,92,0.00,,,0.00,371.000000,,2013-07-01 17:02:00,
2013-07-01 10:12:00,63.0,61.0,30.01,WNW,282,3.0,8.0,92,0.00,,,0.00,359.000000,,2013-07-01 17:12:00,
2013-07-01 10:23:00,63.0,61.0,30.01,WNW,282,3.0,8.0,92,0.00,,,0.00,359.000000,,2013-07-01 17:23:00,
2013-07-01 10:33:00,63.0,61.0,30.00,West,263,3.0,7.0,92,0.00,,,0.00,327.000000,,2013-07-01 17:33:00,
2013-07-01 10:43:00,63.0,61.0,30.01,SSW,200,3.0,6.0,93,0.00,,,0.00,410.000000,,2013-07-01 17:43:00,
2013-07-01 10:53:00,63.0,61.0,30.01,WSW,251,2.0,6.0,93,0.00,,,0.00,362.000000,,2013-07-01 17:53:00,
2013-07-01 11:02:00,63.0,61.0,30.01,WSW,251,2.0,6.0,93,0.00,,,0.00,362.000000,,2013-07-01 18:02:00,
2013-07-01 11:11:00,63.0,61.0,30.02,WSW,248,3.0,7.0,93,0.00,,,0.00,432.000000,,2013-07-01 18:11:00,
2013-07-01 11:33:00,64.0,62.0,30.02,West,271,3.0,7.0,92,0.00,,,0.00,323.000000,,2013-07-01 18:33:00,
2013-07-01 11:43:00,63.0,61.0,30.02,WSW,254,3.0,7.0,93,0.00,,,0.00,364.000000,,2013-07-01 18:43:00,
2013-07-01 11:52:00,63.0,61.0,30.02,WSW,254,3.0,7.0,93,0.00,,,0.00,364.000000,,2013-07-01 18:52:00,
2013-07-01 12:01:00,64.0,62.0,30.02,WSW,251,3.0,5.0,93,0.00,,,0.00,367.000000,,2013-07-01 19:01:00,
2013-07-01 12:11:00,63.0,61.0,30.03,WSW,252,3.0,8.0,93,0.00,,,0.00,304.000000,,2013-07-01 19:11:00,
2013-07-01 12:21:00,63.0,61.0,30.03,WSW,252,3.0,8.0,93,0.00,,,0.00,304.000000,,2013-07-01 19:21:00,
2013-07-01 12:33:00,63.0,61.0,30.03,SSW,210,3.0,9.0,93,0.00,,,0.00,301.000000,,2013-07-01 19:33:00,
2013-07-01 12:44:00,63.0,61.0,30.04,West,270,4.0,7.0,93,0.00,,,0.00,362.000000,,2013-07-01 19:44:00,
2013-07-01 12:52:00,64.0,62.0,30.03,WNW,291,2.0,7.0,93,0.00,,,0.00,436.000000,,2013-07-01 19:52:00,
2013-07-01 13:01:00,64.0,62.0,30.03,WNW,291,2.0,7.0,93,0.00,,,0.00,436.000000,,2013-07-01 20:01:00,
2013-07-01 13:11:00,65.0,62.0,30.03,South,188,2.0,7.0,91,0.00,,,0.00,413.000000,,2013-07-01 20:11:00,
2013-07-01 13:33:00,65.0,62.0,30.03,NW,306,2.0,6.0,90,0.00,,,0.00,483.000000,,2013-07-01 20:33:00,
2013-07-01 13:43:00,66.0,62.0,30.03,ESE,121,3.0,8.0,88,0.00,,,0.00,496.000000,,2013-07-01 20:43:00,
2013-07-01 13:52:00,66.0,62.0,30.03,ESE,121,3.0,8.0,88,0.00,,,0.00,496.000000,,2013-07-01 20:52:00,
2013-07-01 14:01:00,66.0,63.0,30.03,WSW,246,4.0,8.0,89,0.00,,,0.00,619.000000,,2013-07-01 21:01:00,
2013-07-01 14:11:00,65.0,62.0,30.04,SW,225,4.0,8.0,89,0.00,,,0.00,469.000000,,2013-07-01 21:11:00,
2013-07-01 14:23:00,65.0,62.0,30.04,SW,225,4.0,8.0,89,0.00,,,0.00,469.000000,,2013-07-01 21:23:00,
2013-07-01 14:34:00,64.0,61.0,30.05,West,262,3.0,8.0,90,0.00,,,0.00,367.000000,,2013-07-01 21:34:00,
2013-07-01 14:43:00,64.0,61.0,30.06,WSW,247,3.0,10.0,90,0.00,,,0.00,343.000000,,2013-07-01 21:43:00,
2013-07-01 14:53:00,64.0,61.0,30.06,West,264,4.0,11.0,90,0.00,,,0.00,348.000000,,2013-07-01 21:53:00,
2013-07-01 15:01:00,64.0,61.0,30.06,West,264,4.0,11.0,90,0.00,,,0.00,348.000000,,2013-07-01 22:01:00,
2013-07-01 15:11:00,65.0,62.0,30.06,SW,236,3.0,8.0,90,0.00,,,0.00,308.000000,,2013-07-01 22:11:00,
2013-07-01 15:23:00,65.0,62.0,30.06,SE,139,1.0,5.0,90,0.00,,,0.00,336.000000,,2013-07-01 22:23:00,
2013-07-01 15:33:00,65.0,62.0,30.06,SE,139,1.0,5.0,90,0.00,,,0.00,336.000000,,2013-07-01 22:33:00,
2013-07-01 15:42:00,65.0,62.0,30.06,South,189,2.0,5.0,89,0.00,,,0.00,287.000000,,2013-07-01 22:42:00,
2013-07-01 15:53:00,65.0,62.0,30.06,SSW,205,0.0,7.0,89,0.00,,,0.00,278.000000,,2013-07-01 22:53:00,
2013-07-01 16:01:00,65.0,62.0,30.06,SSW,205,0.0,7.0,89,0.00,,,0.00,278.000000,,2013-07-01 23:01:00,
2013-07-01 16:11:00,64.0,61.0,30.06,SSW,192,1.0,7.0,90,0.00,,,0.00,262.000000,,2013-07-01 23:11:00,
2013-07-01 16:22:00,64.0,61.0,30.06,SSW,192,1.0,7.0,90,0.00,,,0.00,262.000000,,2013-07-01 23:22:00,
2013-07-01 16:33:00,64.0,61.0,30.06,SSW,209,2.0,4.0,90,0.00,,,0.00,269.000000,,2013-07-01 23:33:00,
2013-07-01 16:43:00,65.0,62.0,30.07,West,267,3.0,7.0,89,0.00,,,0.00,220.000000,,2013-07-01 23:43:00,
2013-07-01 16:53:00,65.0,62.0,30.07,West,267,3.0,7.0,89,0.00,,,0.00,220.000000,,2013-07-01 23:53:00,
2013-07-01 17:01:00,64.0,61.0,30.07,WSW,251,2.0,6.0,91,0.00,,,0.00,207.000000,,2013-07-02 00:01:00,
2013-07-01 17:11:00,64.0,61.0,30.06,SE,135,2.0,5.0,90,0.00,,,0.00,195.000000,,2013-07-02 00:11:00,
2013-07-01 17:22:00,64.0,61.0,30.06,SE,135,2.0,5.0,90,0.00,,,0.00,195.000000,,2013-07-02 00:22:00,
2013-07-01 17:33:00,64.0,61.0,30.06,SE,135,2.0,5.0,90,0.00,,,0.00,195.000000,,2013-07-02 00:33:00,
2013-07-01 17:43:00,63.0,61.0,30.06,SSE,154,1.0,5.0,92,0.00,,,0.00,178.000000,,2013-07-02 00:43:00,
2013-07-01 17:53:00,63.0,61.0,30.05,WSW,241,2.0,5.0,92,0.00,,,0.00,148.000000,,2013-07-02 00:53:00,
2013-07-01 18:01:00,63.0,61.0,30.05,WSW,241,2.0,5.0,92,0.00,,,0.00,148.000000,,2013-07-02 01:01:00,
2013-07-01 18:11:00,63.0,61.0,30.05,WSW,257,0.0,5.0,92,0.00,,,0.00,144.000000,,2013-07-02 01:11:00,
2013-07-01 18:33:00,63.0,61.0,30.05,South,169,1.0,4.0,92,0.00,,,0.00,135.000000,,2013-07-02 01:33:00,
2013-07-01 18:43:00,63.0,61.0,30.05,SSW,211,1.0,4.0,92,0.00,,,0.00,128.000000,,2013-07-02 01:43:00,
2013-07-01 18:53:00,63.0,61.0,30.05,ENE,63,0.0,4.0,92,0.00,,,0.00,113.000000,,2013-07-02 01:53:00,
2013-07-01 19:01:00,63.0,61.0,30.05,ENE,63,0.0,4.0,92,0.00,,,0.00,113.000000,,2013-07-02 02:01:00,
2013-07-01 19:11:00,63.0,61.0,30.05,West,263,0.0,5.0,92,0.00,,,0.00,104.000000,,2013-07-02 02:11:00,
2013-07-01 19:33:00,63.0,61.0,30.04,West,274,2.0,5.0,92,0.00,,,0.00,84.000000,,2013-07-02 02:33:00,
2013-07-01 19:43:00,63.0,61.0,30.04,West,281,0.0,5.0,92,0.00,,,0.00,63.000000,,2013-07-02 02:43:00,
2013-07-01 19:53:00,62.0,60.0,30.05,SSW,193,0.0,3.0,92,0.00,,,0.00,46.000000,,2013-07-02 02:53:00,
2013-07-01 20:01:00,62.0,60.0,30.05,SSW,193,0.0,3.0,92,0.00,,,0.00,46.000000,,2013-07-02 03:01:00,
2013-07-01 20:11:00,62.0,60.0,30.05,SW,217,0.0,5.0,93,0.00,,,0.00,26.000000,,2013-07-02 03:11:00,
2013-07-01 20:23:00,62.0,60.0,30.05,SW,229,0.0,5.0,93,0.00,,,0.00,18.000000,,2013-07-02 03:23:00,
2013-07-01 20:32:00,62.0,60.0,30.05,SW,229,0.0,5.0,93,0.00,,,0.00,18.000000,,2013-07-02 03:32:00,
2013-07-01 20:43:00,61.0,59.0,30.06,SE,136,2.0,12.0,94,0.00,,,0.00,11.000000,,2013-07-02 03:43:00,
2013-07-01 20:53:00,61.0,59.0,30.06,SW,236,1.0,5.0,94,0.00,,,0.00,5.000000,,2013-07-02 03:53:00,
2013-07-01 21:01:00,61.0,59.0,30.06,SW,236,1.0,5.0,94,0.00,,,0.00,5.000000,,2013-07-02 04:01:00,
2013-07-01 21:11:00,61.0,59.0,30.06,South,190,0.0,7.0,94,0.00,,,0.00,0.000000,,2013-07-02 04:11:00,
2013-07-01 21:21:00,61.0,59.0,30.06,South,190,0.0,7.0,94,0.00,,,0.00,0.000000,,2013-07-02 04:21:00,
2013-07-01 21:32:00,61.0,59.0,30.06,South,190,0.0,7.0,94,0.00,,,0.00,0.000000,,2013-07-02 04:32:00,
2013-07-01 21:42:00,61.0,60.0,30.07,WSW,244,2.0,5.0,95,0.00,,,0.00,0.000000,,2013-07-02 04:42:00,
2013-07-01 21:53:00,61.0,60.0,30.07,WSW,244,2.0,5.0,95,0.00,,,0.00,0.000000,,2013-07-02 04:53:00,
2013-07-01 22:01:00,61.0,60.0,30.07,South,190,1.0,4.0,95,0.00,,,0.00,0.000000,,2013-07-02 05:01:00,
2013-07-01 22:11:00,61.0,60.0,30.08,SW,219,0.0,4.0,95,0.00,,,0.00,0.000000,,2013-07-02 05:11:00,
2013-07-01 22:22:00,61.0,60.0,30.08,SW,219,0.0,4.0,95,0.00,,,0.00,0.000000,,2013-07-02 05:22:00,
2013-07-01 22:32:00,61.0,60.0,30.08,SW,219,0.0,4.0,95,0.00,,,0.00,0.000000,,2013-07-02 05:32:00,
2013-07-01 22:43:00,60.0,59.0,30.09,SW,234,0.0,3.0,95,0.00,,,0.00,0.000000,,2013-07-02 05:43:00,
2013-07-01 22:52:00,60.0,59.0,30.09,SSW,212,0.0,0.0,95,0.00,,,0.00,0.000000,,2013-07-02 05:52:00,
2013-07-01 23:01:00,60.0,59.0,30.09,SSW,212,0.0,0.0,95,0.00,,,0.00,0.000000,,2013-07-02 06:01:00,
2013-07-01 23:11:00,60.0,59.0,30.09,SSW,194,0.0,0.0,95,0.00,,,0.00,0.000000,,2013-07-02 06:11:00,
2013-07-01 23:23:00,60.0,59.0,30.09,SSW,194,0.0,0.0,95,0.00,,,0.00,0.000000,,2013-07-02 06:23:00,
2013-07-01 23:33:00,60.0,59.0,30.09,SSW,194,0.0,0.0,95,0.00,,,0.00,0.000000,,2013-07-02 06:33:00,
2013-07-01 23:43:00,60.0,59.0,30.10,SSW,208,0.0,0.0,95,0.00,,,0.00,0.000000,,2013-07-02 06:43:00,
2013-07-01 23:53:00,60.0,59.0,30.10,South,178,0.0,7.0,95,0.00,,,0.00,0.000000,,2013-07-02 06:53:00,